Bergen Op Zoom, Netherlands

10:20 AM CET on February 22, 2017 (GMT +0100)
Woensdrecht Air Base

Weather History for EHWO - March, 2014

Change the Weather History Date:

Wednesday, March 19, 2014

  Actual Average Record
Temperature  
Mean Temperature 55 °F -  
Max Temperature 64 °F 53 °F 64 °F (2014)
Min Temperature 46 °F 38 °F 26 °F (2013)
Degree Days  
Heating Degree Days 10    
Growing Degree Days 5 (Base 50)    
Moisture  
Dew Point 44 °F    
Average Humidity 69    
Maximum Humidity 87    
Minimum Humidity 39    
Precipitation  
Precipitation 0.00 in - - ()
Sea Level Pressure  
Sea Level Pressure 30.16 in    
Wind  
Wind Speed 14 mph ()    
Max Wind Speed 22 mph    
Max Gust Speed 30 mph    
Visibility 7.8 miles    
Events      
Averages and records for this station are not official NWS values.
T = Trace of Precipitation, MM = Missing Value Source: Averaged Metar Reports

Daily Weather History Graph

Daily Weather History Graph

Search for Another Location

Airport or City:

Trip Planner

Search our weather history database for the weather conditions in past years. The results will help you decide how hot, cold, wet, or windy it might be!

Date:

Astronomy

Mar. 19, 2014 Rise Set
Actual Time 6:48 AM CET 6:53 PM CET
Civil Twilight 6:14 AM CET 7:27 PM CET
Nautical Twilight 5:35 AM CET 8:06 PM CET
Astronomical Twilight 4:55 AM CET 8:47 PM CET
Moon 10:19 PM CET (3/19) 7:44 AM CET (3/19)
Length of Visible Light 13h 12m
Length of Day
12h 05m
Waning Gibbous, 92% of the Moon is Illuminated
Mar 19
Waning Gibbous
Mar 24
Last Quarter
Mar 30
New
Apr 7
First Quarter
Apr 15
Full

Hourly Weather History & Observations

Time (CET) Temp. Windchill Dew Point Humidity Pressure Visibility Wind Dir Wind Speed Gust Speed Precip Events Conditions
12:00 AM 51 °F - 44 °F 68% 30.04 in 12 mi West 20.1 mph - -   Partly Cloudy
12:25 AM 50.0 °F - 44.6 °F 82% 30.04 in 6.2 mi West 17.3 mph - N/A   Overcast
12:55 AM 50.0 °F - 44.6 °F 82% 30.04 in 6.2 mi West 17.3 mph - N/A   Overcast
1:00 AM 50 °F - 44 °F 73% 30.07 in 10 mi West 17.9 mph - -   Partly Cloudy
1:25 AM 50.0 °F - 44.6 °F 82% 30.06 in 6.2 mi West 18.4 mph - N/A   Overcast
1:55 AM 50.0 °F - 44.6 °F 82% 30.06 in 6.2 mi West 16.1 mph - N/A   Overcast
2:00 AM 50 °F - 44 °F 73% 30.10 in 10 mi West 15.7 mph - -   Overcast
2:25 AM 50.0 °F - 44.6 °F 82% 30.09 in 6.2 mi West 15.0 mph - N/A   Overcast
2:55 AM 50.0 °F - 42.8 °F 76% 30.09 in 6.2 mi West 16.1 mph - N/A   Overcast
3:00 AM 50 °F - 43 °F 71% 30.12 in 13 mi West 15.7 mph - -   Overcast
3:25 AM 50.0 °F - 42.8 °F 76% 30.09 in 6.2 mi West 13.8 mph - N/A   Overcast
3:55 AM 48.2 °F - 44.6 °F 87% 30.09 in 6.2 mi West 13.8 mph - N/A   Overcast
4:00 AM 48 °F - 44 °F 81% 30.13 in 8 mi West 13.4 mph - -   Scattered Clouds
4:25 AM 48.2 °F - 44.6 °F 87% 30.12 in 6.2 mi West 15.0 mph - N/A   Overcast
4:55 AM 48.2 °F - 44.6 °F 87% 30.12 in 6.2 mi WSW 12.7 mph - N/A   Unknown
5:00 AM 47 °F - 44 °F 85% 30.14 in 8 mi WSW 13.4 mph - -   Scattered Clouds
5:25 AM 48.2 °F - 44.6 °F 87% 30.12 in 6.2 mi West 13.8 mph - N/A   Unknown
5:55 AM 48.2 °F - 42.8 °F 82% 30.15 in 6.2 mi West 13.8 mph - N/A   Mostly Cloudy
6:00 AM 48 °F - 43 °F 78% 30.16 in 11 mi West 13.4 mph - -   Mostly Cloudy
6:25 AM 48.2 °F - 42.8 °F 82% 30.15 in 6.2 mi WSW 11.5 mph - N/A   Mostly Cloudy
6:55 AM 46.4 °F 41.1 °F 42.8 °F 87% 30.15 in 6.2 mi WSW 11.5 mph - N/A   Mostly Cloudy
7:00 AM 47 °F - 43 °F 82% 30.18 in 9 mi WSW 11.2 mph - -   Partly Cloudy
7:25 AM 46.4 °F 40.7 °F 42.8 °F 87% 30.18 in 6.2 mi WSW 12.7 mph - N/A   Scattered Clouds
7:27 AM 48.2 °F - 42.8 °F 82% 30.18 in 6.2 mi WSW 12.7 mph - N/A   Unknown
7:55 AM 48.2 °F - 42.8 °F 82% 30.18 in 6.2 mi WSW 12.7 mph - N/A   Scattered Clouds
8:00 AM 49 °F - 44 °F 76% 30.20 in 11 mi WSW 11.2 mph - -   Mostly Cloudy
8:25 AM 50.0 °F - 44.6 °F 82% 30.18 in 6.2 mi WSW 12.7 mph - N/A   Overcast
8:55 AM 48.2 °F - 44.6 °F 87% 30.18 in 6.2 mi SW 9.2 mph - N/A   Mostly Cloudy
9:00 AM 49 °F - 44 °F 78% 30.21 in 11 mi SW 8.9 mph - -   Mostly Cloudy
9:25 AM 50.0 °F - 44.6 °F 82% 30.18 in 6.2 mi SW 10.4 mph - N/A   Overcast
9:55 AM 51.8 °F - 44.6 °F 76% 30.21 in 6.2 mi SW 12.7 mph - N/A   Unknown
10:00 AM 52 °F - 44 °F 66% 30.21 in 12 mi SW 11.2 mph - -   Scattered Clouds
10:25 AM 53.6 °F - 44.6 °F 72% 30.18 in 6.2 mi SW 12.7 mph - N/A   Partly Cloudy
10:55 AM 55.4 °F - 44.6 °F 67% 30.21 in 6.2 mi SW 16.1 mph - N/A   Unknown
11:00 AM 56 °F - 43 °F 52% 30.21 in 13 mi SW 13.4 mph - -   Scattered Clouds
11:16 AM 55.4 °F - 42.8 °F 63% 30.18 in 6.2 mi SW 17.3 mph - N/A   Scattered Clouds
11:25 AM 57.2 °F - 42.8 °F 59% 30.18 in 6.2 mi SW 18.4 mph - N/A   Partly Cloudy
11:55 AM 57.2 °F - 44.6 °F 63% 30.18 in 6.2 mi SW 18.4 mph - N/A   Unknown
12:00 PM 58 °F - 43 °F 47% 30.20 in 13 mi SW 17.9 mph - -  
12:25 PM 59.0 °F - 42.8 °F 55% 30.18 in 6.2 mi SW 19.6 mph - N/A   Partly Cloudy
12:55 PM 60.8 °F - 42.8 °F 52% 30.18 in 6.2 mi SW 18.4 mph - N/A   Scattered Clouds
1:00 PM 62 °F - 44 °F 40% 30.19 in 16 mi SW 17.9 mph - -   Partly Cloudy
1:25 PM 62.6 °F - 41.0 °F 45% 30.18 in 6.2 mi SW 21.9 mph - N/A   Unknown
1:55 PM 62.6 °F - 44.6 °F 52% 30.18 in 6.2 mi WSW 17.3 mph - N/A   Mostly Cloudy
2:00 PM 63 °F - 45 °F 40% 30.19 in 13 mi WSW 20.1 mph - -   Partly Cloudy
2:25 PM 62.6 °F - 44.6 °F 52% 30.18 in 6.2 mi SW 18.4 mph - N/A   Overcast
2:55 PM 64.4 °F - 44.6 °F 49% 30.18 in 6.2 mi WSW 18.4 mph 29.9 mph N/A   Scattered Clouds
3:00 PM 63 °F - 44 °F 39% 30.18 in 13 mi SW 20.1 mph - -   Scattered Clouds
3:25 PM 62.6 °F - 44.6 °F 52% 30.18 in 6.2 mi WSW 20.7 mph - N/A   Scattered Clouds
3:55 PM 60.8 °F - 44.6 °F 55% 30.18 in 6.2 mi WSW 17.3 mph - N/A   Mostly Cloudy
4:00 PM 62 °F - 45 °F 43% 30.19 in 14 mi WSW 15.7 mph - -   Mostly Cloudy
4:10 PM 62.6 °F - 44.6 °F 52% 30.15 in 6.2 mi SW 16.1 mph - N/A   Overcast
4:25 PM 62.6 °F - 44.6 °F 52% 30.15 in 6.2 mi SW 16.1 mph - N/A   Overcast
4:55 PM 59.0 °F - 42.8 °F 55% 30.15 in 6.2 mi SW 17.3 mph - N/A   Overcast
5:00 PM 59 °F - 44 °F 46% 30.18 in 13 mi WSW 15.7 mph - -   Overcast
5:25 PM 57.2 °F - 42.8 °F 59% 30.18 in 6.2 mi WSW 19.6 mph - N/A   Overcast
5:55 PM 55.4 °F - 42.8 °F 63% 30.15 in 6.2 mi SW 15.0 mph - N/A   Overcast
6:00 PM 56 °F - 43 °F 51% 30.19 in 12 mi SW 13.4 mph - -   Overcast
6:25 PM 55.4 °F - 42.8 °F 63% 30.18 in 6.2 mi SW 11.5 mph - N/A   Overcast
6:55 PM 53.6 °F - 42.8 °F 67% 30.18 in 6.2 mi SW 12.7 mph - N/A   Mostly Cloudy
7:00 PM 54 °F - 42 °F 55% 30.19 in 12 mi SW 13.4 mph - -   Partly Cloudy
7:25 PM 53.6 °F - 42.8 °F 67% 30.18 in 6.2 mi SW 11.5 mph - N/A   Mostly Cloudy
7:55 PM 51.8 °F - 42.8 °F 71% 30.18 in 6.2 mi SW 10.4 mph - N/A   Mostly Cloudy
8:00 PM 52 °F - 42 °F 61% 30.19 in 10 mi SW 11.2 mph - -   Overcast
8:25 PM 51.8 °F - 42.8 °F 71% 30.18 in 6.2 mi SW 10.4 mph - N/A   Mostly Cloudy
8:55 PM 51.8 °F - 42.8 °F 71% 30.18 in 6.2 mi SW 12.7 mph - N/A   Overcast
9:00 PM 51 °F - 43 °F 66% 30.19 in 9 mi SW 11.2 mph - -   Overcast
9:25 PM 50.0 °F - 42.8 °F 76% 30.18 in 6.2 mi SW 11.5 mph - N/A   Overcast
9:55 PM 50.0 °F - 42.8 °F 76% 30.18 in 6.2 mi SW 12.7 mph - N/A   Overcast
10:00 PM 50 °F - 43 °F 71% 30.19 in 9 mi SW 13.4 mph - -   Mostly Cloudy
10:25 PM 50.0 °F - 42.8 °F 76% 30.18 in 6.2 mi SW 8.1 mph - N/A   Mostly Cloudy
10:55 PM 50.0 °F - 42.8 °F 76% 30.18 in 6.2 mi SW 6.9 mph - N/A   Partly Cloudy
11:00 PM 49 °F - 43 °F 74% 30.19 in 6 mi SW 6.7 mph - -   Scattered Clouds
11:25 PM 50.0 °F - 42.8 °F 76% 30.18 in 6.2 mi SW 8.1 mph - N/A   Unknown
11:55 PM 50.0 °F - 42.8 °F 76% 30.15 in 6.2 mi SW 8.1 mph - N/A   Unknown